SCP
0 -0 -0 -0 -0 -0 -1 -1 -1 -1 -1 -2 -1 -1 -1 -1 -0 -0 -0 -0 -0 -0 -0 -0 -0 -0 -0 -0 0 0 0 0 0 -0 -0 -0 -0 -0 0 0 0 0 0
0 0 -1 -1 -0 -1 -1 -1 -1 -1 -1 -1 -1 -1 -1 -1 -0 -0 -0 -0 -0 -0 -0 -0 -0 -0 -0 -0 0 0 -0 0 0 0 0 -0 -0 -0 0 0 0 0 0
0 0 -0 -0 -1 -0 -1 -1 -1 -1 -1 -1 -1 -1 -1 -0 -0 -0 -0 -0 -0 -0 -0 -0 -0 -0 -0 -0 0 0 0 0 0 0 -0 -0 -0 -0 0 0 0 0 0
0 0 0 0 -0 -1 -0 -0 -0 -0 -1 -0 -0 -1 -0 -0 -0 -0 -0 -0 -0 -0 -0 -0 -0 -0 -0 -0 0 0 0 0 0 0 -0 -0 -0 -0 0 0 0 0 0
1 1 1 1 0 0 -0 -0 -0 -0 -0 -0 -0 -0 -0 -0 -0 -0 -0 -0 -0 -0 -0 -0 -0 -0 -0 -0 -0 -0 -0 -0 -0 -0 -0 -0 -0 0 0 0 0 0 0
1 1 1 1 0 0 1 0 0 -0 -0 -0 -0 -0 -0 -0 -0 -0 -0 -0 -0 -0 -0 -0 -0 0 0 -0 0 -0 -0 -0 -0 -0 -0 0 0 0 0 0 0 0 0
1 1 1 0 1 0 0 0 0 0 0 -0 -0 -0 -0 -0 -0 0 0 0 0 0 0 0 0 0 0 -0 0 0 -0 -0 -0 -0 -0 -0 0 0 0 0 0 0 0
1 1 1 1 1 0 0 0 0 0 0 0 0 0 0 0 0 0 0 0 0 0 0 0 0 0 0 0 0 0 0 0 0 0 0 0 0 0 0 0 0 0 0
2 1 1 1 1 1 1 1 0 0 0 0 0 0 0 0 0 0 0 0 0 0 0 0 0 0 0 0 0 0 0 0 0 0 0 0 0 0 0 0 0 0 0
2 2 2 2 2 2 1 1 1 1 0 0 0 0 0 0 0 0 0 0 0 0 0 0 0 0 0 0 0 0 0 0 0 0 0 0 0 0 0 0 0 0 0
1 1 1 2 1 1 1 1 1 1 1 1 1 0 0 0 0 0 0 0 0 0 0 0 0 0 0 0 0 0 0 0 0 0 0 0 0 0 0 0 0 0 0
1 1 1 1 1 1 2 1 1 1 1 1 1 0 0 0 0 0 0 0 0 0 0 0 0 0 0 0 0 0 0 0 0 0 0 0 0 0 0 0 0 0 1
1 1 1 1 1 1 2 1 1 1 1 1 0 0 0 0 0 0 0 0 0 0 0 0 0 0 0 0 0 0 0 0 0 0 0 0 0 0 0 0 0 1 1
1 1 1 1 1 2 2 1 1 1 1 1 1 0 0 0 0 0 0 0 0 0 0 0 0 0 0 0 0 0 0 0 0 0 0 0 0 0 0 0 1 1 1
2 1 1 1 2 2 2 1 1 1 1 1 1 1 0 0 0 0 0 0 0 0 0 0 0 0 0 0 0 0 0 0 0 0 0 0 0 0 1 1 2 2 2
2 2 1 1 1 1 1 1 2 2 1 1 1 0 1 0 0 0 0 0 0 0 0 0 0 0 0 0 0 0 0 0 0 0 0 0 0 0 0 1 1 1 2
1 1 1 1 1 1 0 1 2 2 1 1 1 1 0 0 0 0 0 0 0 0 0 0 0 0 0 0 0 0 0 0 0 0 0 0 0 0 0 0 1 1 1
1 1 1 1 1 0 0 1 1 1 1 1 1 1 1 0 0 0 0 0 0 0 0 0 0 0 0 0 0 0 0 0 0 0 0 0 0 0 0 0 0 0 0
1 1 1 1 1 0 1 1 1 0 1 1 0 0 0 0 0 0 0 0 0 0 0 0 0 0 0 0 0 0 0 0 0 0 0 0 0 0 0 0 0 0 0
1 1 1 1 0 0 1 1 2 2 1 0 0 0 0 0 1 0 0 0 0 0 0 0 0 0 0 0 0 0 0 0 0 0 0 0 0 0 0 0 0 0 0
1 1 1 0 0 0 1 1 2 1 1 0 0 0 0 0 0 0 0 0 0 0 0 0 0 0 0 0 0 0 0 0 0 0 0 0 0 0 0 0 0 0 0
1 1 0 0 0 0 0 1 1 1 1 1 0 0 0 -0 0 0 0 0 0 0 0 0 0 0 0 0 0 0 0 0 0 0 0 0 0 0 0 0 0 0 0
1 0 0 0 0 0 1 1 1 0 0 0 0 0 0 0 0 0 0 0 0 0 0 0 0 0 0 0 0 0 0 0 0 0 0 0 0 0 0 0 0 0 0
0 0 0 0 0 0 0 1 1 0 0 0 0 0 0 0 0 0 0 0 0 0 0 0 0 0 0 0 0 0 0 0 0 0 0 0 0 0 0 0 0 0 0
0 0 0 0 0 1 0 0 0 0 0 0 0 0 0 0 0 0 0 0 0 0 0 0 0 0 0 0 0 0 0 0 0 0 0 0 0 0 0 0 0 0 -0
0 0 0 0 0 0 0 0 0 0 0 0 0 0 0 0 0 0 0 0 0 0 0 0 0 0 0 0 0 0 0 0 0 0 0 0 0 0 0 0 0 0 0
Wind_Speed_500mb
57 54 52 53 51 43 34 29 26 24 27 29 30 28 23 20 21 25 28 31 31 30 30 31 29 26 22 18 21 22 19 22 22 21 20 20 20 19 20 21 20 20 20
53 55 56 55 52 45 36 31 28 25 23 25 26 25 23 22 24 27 29 31 30 29 27 25 22 20 20 21 23 23 21 24 21 23 23 21 19 17 18 19 19 19 20
49 57 56 56 53 46 39 32 29 25 22 22 25 25 24 25 27 29 31 30 28 26 24 23 21 20 21 22 23 23 23 25 23 23 23 21 19 17 17 17 16 17 18
50 58 59 57 53 47 40 35 29 25 22 23 25 24 26 27 29 31 31 27 25 24 23 22 21 21 22 23 23 24 26 27 25 23 20 18 18 17 16 15 13 14 15
56 59 60 59 54 47 42 36 30 25 22 22 23 24 25 27 30 32 29 26 23 22 21 21 21 20 21 21 24 27 24 19 18 17 16 16 15 14 12 11 10 8 9
58 58 59 57 54 48 43 37 32 27 23 21 22 24 25 27 29 30 28 25 22 20 20 20 20 20 20 22 24 25 20 15 15 13 8 10 12 12 9 8 7 6 6
60 61 62 58 52 48 43 38 34 28 23 20 20 24 26 28 28 28 25 22 20 20 20 21 22 22 21 22 25 22 17 13 11 10 7 6 8 10 10 9 7 7 9
56 59 59 56 51 47 42 38 34 31 26 21 19 21 23 26 25 25 23 21 19 18 19 21 23 23 22 24 27 22 17 12 9 6 5 5 3 2 4 7 9 11 13
57 57 59 57 52 47 43 38 35 33 30 24 20 18 20 22 23 23 21 18 16 15 17 20 22 23 22 24 27 24 20 14 10 7 3 4 7 7 6 6 10 11 13
56 55 56 55 53 50 45 42 39 35 32 29 23 18 16 17 19 20 20 18 16 16 17 20 23 24 23 24 26 27 24 19 16 15 13 12 11 13 18 18 17 19 19
52 52 54 54 51 47 46 44 40 37 34 30 26 19 16 15 16 19 18 17 15 14 16 19 24 27 28 26 26 29 30 28 24 22 22 23 21 23 23 26 26 25 26
53 55 52 54 53 51 49 46 42 39 37 33 28 22 18 15 14 14 17 18 16 15 13 14 14 17 20 21 22 25 29 32 33 33 32 31 31 31 34 34 33 33 32
50 48 48 51 53 54 52 47 44 42 39 36 32 27 23 19 17 16 16 20 20 17 14 12 12 13 15 20 23 27 30 31 33 35 34 36 34 32 41 44 38 37 36
47 45 47 48 54 54 49 49 44 41 41 42 37 31 26 21 18 15 16 17 20 20 17 17 17 17 18 19 22 24 27 30 32 35 37 41 46 47 41 38 42 40 41
43 36 37 46 51 51 52 48 45 45 46 41 37 33 27 24 20 12 16 14 16 21 21 20 18 17 21 27 29 30 31 33 34 35 38 44 50 53 53 51 44 43 42
50 48 46 52 51 51 49 52 52 50 47 40 37 31 24 24 21 15 20 21 17 22 27 23 20 20 20 22 26 31 34 34 35 36 42 58 59 56 59 58 56 51 45
50 50 53 54 54 51 53 54 55 47 41 40 34 34 29 26 22 18 26 23 22 26 27 25 24 23 25 29 31 34 40 42 39 50 52 49 57 66 64 59 59 58 57
41 47 54 57 57 57 62 61 56 46 40 39 37 34 33 40 31 22 23 29 20 27 25 27 25 24 29 33 34 38 45 53 58 58 59 61 48 59 69 68 65 60 61
36 43 50 63 60 61 64 58 49 42 38 34 33 35 40 35 34 24 28 24 26 24 22 26 34 33 35 38 38 40 50 56 52 52 53 54 64 62 61 63 69 70 74
49 47 54 64 70 68 67 58 49 47 38 35 34 36 28 27 28 27 29 30 26 25 25 27 21 28 33 31 37 43 40 39 42 48 55 50 50 61 54 51 56 65 58
52 53 58 64 72 72 68 53 40 35 32 31 34 30 28 26 15 21 29 30 26 24 21 20 22 23 26 29 37 43 48 46 47 45 46 42 43 46 42 50 45 48 42
55 57 66 70 74 74 53 48 36 32 38 26 34 27 13 7 17 14 34 29 23 20 21 21 22 27 30 33 35 44 47 53 52 48 44 44 46 41 40 42 43 45 47
56 55 63 67 67 64 42 44 38 35 35 25 33 36 37 32 29 27 22 20 19 19 22 26 28 30 32 35 35 32 19 23 55 64 61 59 54 51 51 49 47 45 47
60 60 60 59 62 50 46 44 44 37 33 37 41 38 33 32 28 18 21 21 19 20 21 24 28 33 38 40 42 42 40 43 34 51 78 80 77 71 62 69 67 65 59
65 62 65 57 53 49 44 46 34 34 34 34 33 32 29 26 22 20 16 15 16 19 21 25 29 33 38 44 48 52 54 53 50 53 61 68 60 60 70 69 75 74 74
60 56 54 54 45 38 37 39 35 32 34 35 31 28 24 19 18 18 17 16 16 21 25 32 36 40 43 48 54 56 56 52 54 59 65 66 80 97 70 72 79 82 82
Wind_Direction_500mb
176 172 172 168 167 170 171 171 169 164 161 162 162 161 160 155 144 136 136 137 134 135 132 131 129 131 135 125 118 115 118 115 104 106 109 103 96 98 101 97 95 93 91
171 172 172 170 169 169 169 170 168 167 168 168 167 166 162 155 147 142 142 139 137 139 137 134 134 136 134 127 120 120 118 105 108 108 102 98 99 99 101 97 95 95 94
175 172 173 172 172 171 168 170 165 161 160 165 164 162 161 156 152 149 148 143 140 139 139 138 137 136 134 130 126 124 119 114 111 102 95 95 99 97 96 94 95 97 96
179 174 174 175 175 172 170 167 162 156 152 158 163 161 158 156 154 152 150 147 142 142 142 141 139 139 140 136 133 130 121 111 102 96 96 94 92 91 91 91 90 96 99
183 177 175 176 176 175 172 167 162 156 151 153 161 161 160 160 158 156 155 151 144 142 146 147 147 145 144 142 140 138 130 120 108 101 95 84 77 78 79 82 70 72 85
181 179 178 179 178 178 175 170 164 160 152 149 157 161 164 164 163 163 162 159 154 149 152 155 155 151 150 151 151 149 144 141 127 117 95 83 77 73 56 55 53 25 25
180 181 180 180 181 181 179 176 170 166 159 151 153 164 166 166 167 169 170 170 166 160 160 163 165 163 162 162 162 161 158 152 144 129 100 109 90 64 40 4 359 340 335
180 183 182 182 182 184 183 181 177 174 170 161 157 164 169 170 168 172 173 172 171 167 167 171 173 174 175 175 176 180 180 176 166 147 135 146 129 65 44 358 339 330 319
184 184 185 183 183 185 185 183 183 181 177 172 165 165 172 176 174 176 178 176 175 176 176 178 181 183 183 186 190 195 199 202 208 212 225 240 271 271 273 283 305 312 309
184 186 187 186 186 186 186 188 189 188 184 182 176 171 171 181 187 190 191 188 184 181 179 181 184 189 194 196 200 206 215 223 223 231 247 260 278 284 273 277 280 289 297
185 190 190 190 190 191 193 193 193 193 192 192 189 188 188 187 194 205 207 207 205 196 188 188 191 194 199 204 208 212 220 228 234 238 243 252 265 273 273 271 271 279 287
187 192 196 196 196 197 199 199 199 200 200 198 200 204 204 202 202 208 217 219 214 206 201 201 205 208 210 215 222 225 229 231 235 240 246 249 256 262 265 266 274 271 275
191 190 193 199 201 205 205 205 204 204 204 202 202 208 211 212 213 219 221 224 220 216 208 204 211 222 224 225 231 238 244 247 250 253 257 258 258 271 276 271 271 274 272
198 194 196 198 204 209 210 213 213 212 210 208 206 208 215 222 223 227 232 232 226 220 213 207 216 224 237 242 252 257 263 268 271 273 272 273 268 268 274 272 263 270 269
209 208 207 207 213 212 215 216 215 216 212 211 209 209 209 221 221 224 234 223 217 214 209 207 208 216 231 236 239 245 250 256 260 264 268 272 268 264 265 264 263 268 270
215 219 220 212 215 217 218 218 214 212 212 211 213 210 213 219 224 218 223 212 204 212 212 222 234 243 254 263 268 268 267 266 267 273 287 293 280 270 263 260 259 262 266
222 225 227 222 215 220 217 218 216 214 214 212 213 214 215 208 201 210 204 210 212 220 225 235 237 251 260 266 277 282 285 285 282 295 296 295 297 288 282 275 271 269 267
214 217 222 223 221 221 218 225 226 226 218 220 215 214 208 194 190 199 220 212 224 246 242 246 261 274 283 286 289 297 293 290 288 290 297 300 292 293 282 278 275 276 274
215 204 212 217 219 219 227 228 218 222 219 212 223 208 195 191 197 207 222 227 236 255 258 261 276 273 283 285 288 288 291 289 290 288 289 293 285 292 289 282 274 282 279
206 203 213 218 216 215 218 216 224 220 216 224 220 213 204 203 206 214 221 234 245 258 262 283 271 272 279 282 285 288 293 297 288 286 295 294 290 294 289 288 288 287 290
208 207 211 217 218 216 214 221 217 212 219 218 216 214 214 248 204 226 232 238 250 256 263 273 265 268 277 279 285 285 287 281 282 287 296 297 296 301 289 294 289 293 293
208 208 213 214 218 218 224 219 231 223 217 223 234 251 270 247 225 204 232 240 255 255 252 259 267 273 277 279 280 290 293 292 288 288 288 289 294 295 288 291 291 296 296
203 205 209 213 217 221 221 213 201 199 211 196 180 184 195 202 204 223 231 237 253 260 257 261 265 268 273 277 279 279 287 282 293 293 289 289 287 283 285 279 283 284 286
198 198 206 210 217 221 227 205 191 206 205 182 181 193 198 200 212 230 256 259 258 262 265 269 273 276 279 282 281 277 274 276 289 295 287 287 290 284 276 281 284 285 286
197 195 203 204 207 211 204 188 202 196 207 207 205 211 213 219 228 252 242 243 247 256 262 269 273 276 279 280 279 281 283 283 283 283 285 294 292 293 291 288 288 289 294
195 197 201 200 202 194 192 192 195 206 214 218 216 225 225 221 237 240 243 250 262 267 269 272 274 274 274 275 278 281 283 285 279 278 285 286 287 292 296 289 289 282 287
Wind_Speed_850mb
57 54 52 53 51 43 34 29 26 24 27 29 30 28 23 20 21 25 28 31 31 30 30 31 29 26 22 18 21 22 19 22 22 21 20 20 20 19 20 21 20 20 20
53 55 56 55 52 45 36 31 28 25 23 25 26 25 23 22 24 27 29 31 30 29 27 25 22 20 20 21 23 23 21 24 21 23 23 21 19 17 18 19 19 19 20
49 57 56 56 53 46 39 32 29 25 22 22 25 25 24 25 27 29 31 30 28 26 24 23 21 20 21 22 23 23 23 25 23 23 23 21 19 17 17 17 16 17 18
50 58 59 57 53 47 40 35 29 25 22 23 25 24 26 27 29 31 31 27 25 24 23 22 21 21 22 23 23 24 26 27 25 23 20 18 18 17 16 15 13 14 15
56 59 60 59 54 47 42 36 30 25 22 22 23 24 25 27 30 32 29 26 23 22 21 21 21 20 21 21 24 27 24 19 18 17 16 16 15 14 12 11 10 8 9
58 58 59 57 54 48 43 37 32 27 23 21 22 24 25 27 29 30 28 25 22 20 20 20 20 20 20 22 24 25 20 15 15 13 8 10 12 12 9 8 7 6 6
60 61 62 58 52 48 43 38 34 28 23 20 20 24 26 28 28 28 25 22 20 20 20 21 22 22 21 22 25 22 17 13 11 10 7 6 8 10 10 9 7 7 9
56 59 59 56 51 47 42 38 34 31 26 21 19 21 23 26 25 25 23 21 19 18 19 21 23 23 22 24 27 22 17 12 9 6 5 5 3 2 4 7 9 11 13
57 57 59 57 52 47 43 38 35 33 30 24 20 18 20 22 23 23 21 18 16 15 17 20 22 23 22 24 27 24 20 14 10 7 3 4 7 7 6 6 10 11 13
56 55 56 55 53 50 45 42 39 35 32 29 23 18 16 17 19 20 20 18 16 16 17 20 23 24 23 24 26 27 24 19 16 15 13 12 11 13 18 18 17 19 19
52 52 54 54 51 47 46 44 40 37 34 30 26 19 16 15 16 19 18 17 15 14 16 19 24 27 28 26 26 29 30 28 24 22 22 23 21 23 23 26 26 25 26
53 55 52 54 53 51 49 46 42 39 37 33 28 22 18 15 14 14 17 18 16 15 13 14 14 17 20 21 22 25 29 32 33 33 32 31 31 31 34 34 33 33 32
50 48 48 51 53 54 52 47 44 42 39 36 32 27 23 19 17 16 16 20 20 17 14 12 12 13 15 20 23 27 30 31 33 35 34 36 34 32 41 44 38 37 36
47 45 47 48 54 54 49 49 44 41 41 42 37 31 26 21 18 15 16 17 20 20 17 17 17 17 18 19 22 24 27 30 32 35 37 41 46 47 41 38 42 40 41
43 36 37 46 51 51 52 48 45 45 46 41 37 33 27 24 20 12 16 14 16 21 21 20 18 17 21 27 29 30 31 33 34 35 38 44 50 53 53 51 44 43 42
50 48 46 52 51 51 49 52 52 50 47 40 37 31 24 24 21 15 20 21 17 22 27 23 20 20 20 22 26 31 34 34 35 36 42 58 59 56 59 58 56 51 45
50 50 53 54 54 51 53 54 55 47 41 40 34 34 29 26 22 18 26 23 22 26 27 25 24 23 25 29 31 34 40 42 39 50 52 49 57 66 64 59 59 58 57
41 47 54 57 57 57 62 61 56 46 40 39 37 34 33 40 31 22 23 29 20 27 25 27 25 24 29 33 34 38 45 53 58 58 59 61 48 59 69 68 65 60 61
36 43 50 63 60 61 64 58 49 42 38 34 33 35 40 35 34 24 28 24 26 24 22 26 34 33 35 38 38 40 50 56 52 52 53 54 64 62 61 63 69 70 74
49 47 54 64 70 68 67 58 49 47 38 35 34 36 28 27 28 27 29 30 26 25 25 27 21 28 33 31 37 43 40 39 42 48 55 50 50 61 54 51 56 65 58
52 53 58 64 72 72 68 53 40 35 32 31 34 30 28 26 15 21 29 30 26 24 21 20 22 23 26 29 37 43 48 46 47 45 46 42 43 46 42 50 45 48 42
55 57 66 70 74 74 53 48 36 32 38 26 34 27 13 7 17 14 34 29 23 20 21 21 22 27 30 33 35 44 47 53 52 48 44 44 46 41 40 42 43 45 47
56 55 63 67 67 64 42 44 38 35 35 25 33 36 37 32 29 27 22 20 19 19 22 26 28 30 32 35 35 32 19 23 55 64 61 59 54 51 51 49 47 45 47
60 60 60 59 62 50 46 44 44 37 33 37 41 38 33 32 28 18 21 21 19 20 21 24 28 33 38 40 42 42 40 43 34 51 78 80 77 71 62 69 67 65 59
65 62 65 57 53 49 44 46 34 34 34 34 33 32 29 26 22 20 16 15 16 19 21 25 29 33 38 44 48 52 54 53 50 53 61 68 60 60 70 69 75 74 74
60 56 54 54 45 38 37 39 35 32 34 35 31 28 24 19 18 18 17 16 16 21 25 32 36 40 43 48 54 56 56 52 54 59 65 66 80 97 70 72 79 82 82
Wind_Direction_850mb
176 172 172 168 167 170 171 171 169 164 161 162 162 161 160 155 144 136 136 137 134 135 132 131 129 131 135 125 118 115 118 115 104 106 109 103 96 98 101 97 95 93 91
171 172 172 170 169 169 169 170 168 167 168 168 167 166 162 155 147 142 142 139 137 139 137 134 134 136 134 127 120 120 118 105 108 108 102 98 99 99 101 97 95 95 94
175 172 173 172 172 171 168 170 165 161 160 165 164 162 161 156 152 149 148 143 140 139 139 138 137 136 134 130 126 124 119 114 111 102 95 95 99 97 96 94 95 97 96
179 174 174 175 175 172 170 167 162 156 152 158 163 161 158 156 154 152 150 147 142 142 142 141 139 139 140 136 133 130 121 111 102 96 96 94 92 91 91 91 90 96 99
183 177 175 176 176 175 172 167 162 156 151 153 161 161 160 160 158 156 155 151 144 142 146 147 147 145 144 142 140 138 130 120 108 101 95 84 77 78 79 82 70 72 85
181 179 178 179 178 178 175 170 164 160 152 149 157 161 164 164 163 163 162 159 154 149 152 155 155 151 150 151 151 149 144 141 127 117 95 83 77 73 56 55 53 25 25
180 181 180 180 181 181 179 176 170 166 159 151 153 164 166 166 167 169 170 170 166 160 160 163 165 163 162 162 162 161 158 152 144 129 100 109 90 64 40 4 359 340 335
180 183 182 182 182 184 183 181 177 174 170 161 157 164 169 170 168 172 173 172 171 167 167 171 173 174 175 175 176 180 180 176 166 147 135 146 129 65 44 358 339 330 319
184 184 185 183 183 185 185 183 183 181 177 172 165 165 172 176 174 176 178 176 175 176 176 178 181 183 183 186 190 195 199 202 208 212 225 240 271 271 273 283 305 312 309
184 186 187 186 186 186 186 188 189 188 184 182 176 171 171 181 187 190 191 188 184 181 179 181 184 189 194 196 200 206 215 223 223 231 247 260 278 284 273 277 280 289 297
185 190 190 190 190 191 193 193 193 193 192 192 189 188 188 187 194 205 207 207 205 196 188 188 191 194 199 204 208 212 220 228 234 238 243 252 265 273 273 271 271 279 287
187 192 196 196 196 197 199 199 199 200 200 198 200 204 204 202 202 208 217 219 214 206 201 201 205 208 210 215 222 225 229 231 235 240 246 249 256 262 265 266 274 271 275
191 190 193 199 201 205 205 205 204 204 204 202 202 208 211 212 213 219 221 224 220 216 208 204 211 222 224 225 231 238 244 247 250 253 257 258 258 271 276 271 271 274 272
198 194 196 198 204 209 210 213 213 212 210 208 206 208 215 222 223 227 232 232 226 220 213 207 216 224 237 242 252 257 263 268 271 273 272 273 268 268 274 272 263 270 269
209 208 207 207 213 212 215 216 215 216 212 211 209 209 209 221 221 224 234 223 217 214 209 207 208 216 231 236 239 245 250 256 260 264 268 272 268 264 265 264 263 268 270
215 219 220 212 215 217 218 218 214 212 212 211 213 210 213 219 224 218 223 212 204 212 212 222 234 243 254 263 268 268 267 266 267 273 287 293 280 270 263 260 259 262 266
222 225 227 222 215 220 217 218 216 214 214 212 213 214 215 208 201 210 204 210 212 220 225 235 237 251 260 266 277 282 285 285 282 295 296 295 297 288 282 275 271 269 267
214 217 222 223 221 221 218 225 226 226 218 220 215 214 208 194 190 199 220 212 224 246 242 246 261 274 283 286 289 297 293 290 288 290 297 300 292 293 282 278 275 276 274
215 204 212 217 219 219 227 228 218 222 219 212 223 208 195 191 197 207 222 227 236 255 258 261 276 273 283 285 288 288 291 289 290 288 289 293 285 292 289 282 274 282 279
206 203 213 218 216 215 218 216 224 220 216 224 220 213 204 203 206 214 221 234 245 258 262 283 271 272 279 282 285 288 293 297 288 286 295 294 290 294 289 288 288 287 290
208 207 211 217 218 216 214 221 217 212 219 218 216 214 214 248 204 226 232 238 250 256 263 273 265 268 277 279 285 285 287 281 282 287 296 297 296 301 289 294 289 293 293
208 208 213 214 218 218 224 219 231 223 217 223 234 251 270 247 225 204 232 240 255 255 252 259 267 273 277 279 280 290 293 292 288 288 288 289 294 295 288 291 291 296 296
203 205 209 213 217 221 221 213 201 199 211 196 180 184 195 202 204 223 231 237 253 260 257 261 265 268 273 277 279 279 287 282 293 293 289 289 287 283 285 279 283 284 286
198 198 206 210 217 221 227 205 191 206 205 182 181 193 198 200 212 230 256 259 258 262 265 269 273 276 279 282 281 277 274 276 289 295 287 287 290 284 276 281 284 285 286
197 195 203 204 207 211 204 188 202 196 207 207 205 211 213 219 228 252 242 243 247 256 262 269 273 276 279 280 279 281 283 283 283 283 285 294 292 293 291 288 288 289 294
195 197 201 200 202 194 192 192 195 206 214 218 216 225 225 221 237 240 243 250 262 267 269 272 274 274 274 275 278 281 283 285 279 278 285 286 287 292 296 289 289 282 287